SR9NCI Weather Reports


time (UTC)temp
F
wind
direction
speed
knots
gust
knots
rain 1hr
in
rain 24hr
in
rain mn
in
humidity
%
barometer
mb
20260903115953 73 301 5.2 7.8 0.00 0.00 0.00
20260903115552 73 332 2.6 3.5 0.00 0.00 0.00
20260903115150 73 306 3.5 7.0 0.00 0.00 0.00
20260903114743 73 322 3.5 7.8 0.00 0.00 0.00
20260903114341 73 303 6.1 7.8 0.00 0.00 0.00
20260903113939 74 295 6.1 10.4 0.00 0.00 0.00
20260903112734 76 278 5.2 7.8 0.00 0.00 0.00
20260903112331 77 268 6.1 8.7 0.00 0.00 0.00
20260903111930 78 261 6.1 8.7 0.00 0.00 0.00
20260903111529 78 244 7.8 9.6 0.00 0.00 0.00
20260903111127 78 209 7.8 12.2 0.00 0.00 0.00
20260903110718 77 232 7.0 12.2 0.00 0.00 0.00
20260903110316 76 260 4.3 6.1 0.00 0.00 0.00
20260903105915 77 228 5.2 7.8 0.00 0.00 0.00
20260903105514 77 252 6.1 8.7 0.00 0.00 0.00
20260903105111 77 213 6.1 12.2 0.00 0.00 0.00
20260903104710 77 232 2.6 6.1 0.00 0.00 0.00
20260903104308 75 188 3.5 7.0 0.00 0.00 0.00
20260903103506 77 216 3.5 5.2 0.00 0.00 0.00
20260903103103 78 224 2.6 4.3 0.00 0.00 0.00
20260903102655 76 199 3.5 7.8 0.00 0.00 0.00
20260903102254 76 231 1.7 4.3 0.00 0.00 0.00
20260903101853 75 228 2.6 4.3 0.00 0.00 0.00
20260903101450 75 217 4.3 7.8 0.00 0.00 0.00
20260903101049 76 213 5.2 7.8 0.00 0.00 0.00
20260903100648 75 230 3.5 5.2 0.00 0.00 0.00
20260903095844 76 260 2.6 6.1 0.00 0.00 0.00
20260903095443 75 237 2.6 7.0 0.00 0.00 0.00
20260903095041 75 202 2.6 5.2 0.00 0.00 0.00
20260903094633 75 263 3.5 5.2 0.00 0.00 0.00
20260903094230 74 315 0.9 2.6 0.00 0.00 0.00
20260903093829 74 311 1.7 4.3 0.00 0.00 0.00
20260903093428 75 264 2.6 5.2 0.00 0.00 0.00
20260903093026 75 263 3.5 5.2 0.00 0.00 0.00
20260903092625 74 263 3.5 6.1 0.00 0.00 0.00
20260903092222 74 267 5.2 7.8 0.00 0.00 0.00
20260903091821 73 275 3.5 5.2 0.00 0.00 0.00
20260903091420 74 270 1.7 5.2 0.00 0.00 0.00
20260903091019 74 263 2.6 4.3 0.00 0.00 0.00
20260903090609 74 254 2.6 7.0 0.00 0.00 0.00
20260903090207 73 260 5.2 7.8 0.00 0.00 0.00
20260903085806 74 220 6.1 8.7 0.00 0.00 0.00
20260903085405 74 217 4.3 7.0 0.00 0.00 0.00
20260903085002 73 238 3.5 7.0 0.00 0.00 0.00
20260903084601 74 221 4.3 7.8 0.00 0.00 0.00
20260903084200 74 220 2.6 3.5 0.00 0.00 0.00
20260903083759 74 183 1.7 3.5 0.00 0.00 0.00
20260903083357 74 195 2.6 5.2 0.00 0.00 0.00
20260903082955 73 218 3.5 5.2 0.00 0.00 0.00
20260903082547 73 206 3.5 5.2 0.00 0.00 0.00
20260903082145 74 202 1.7 3.5 0.00 0.00 0.00
20260903081744 73 217 1.7 4.3 0.00 0.00 0.00
20260903081342 73 194 1.7 4.3 0.00 0.00 0.00
20260903080940 72 157 1.7 4.3 0.00 0.00 0.00
20260903080539 72 157 0.9 2.6 0.00 0.00 0.00
20260903080137 72 157 1.7 3.5 0.00 0.00 0.00
20260903075735 73 157 0.9 1.7 0.00 0.00 0.00
20260903075334 73 157 1.7 3.5 0.00 0.00 0.00
20260903074932 72 157 2.6 3.5 0.00 0.00 0.00
20260903074524 73 157 1.7 2.6 0.00 0.00 0.00
20260903074121 72 157 1.7 3.5 0.00 0.00 0.00
20260903073720 72 128 2.6 3.5 0.00 0.00 0.00
20260903073319 72 135 2.6 4.3 0.00 0.00 0.00
20260903072917 72 135 2.6 5.2 0.00 0.00 0.00
20260903072515 71 135 1.7 3.5 0.00 0.00 0.00
20260903072113 71 144 1.7 3.5 0.00 0.00 0.00
20260903071712 71 158 1.7 3.5 0.00 0.00 0.00
20260903071311 71 170 3.5 5.2 0.00 0.00 0.00
20260903070500 70 132 3.5 5.2 0.00 0.00 0.00
20260903070058 70 135 1.7 3.5 0.00 0.00 0.00
20260903065657 70 135 3.5 5.2 0.00 0.00 0.00
20260903065256 70 129 2.6 5.2 0.00 0.00 0.00
20260903064853 71 132 4.3 7.0 0.00 0.00 0.00
20260903064452 71 135 5.2 7.8 0.00 0.00 0.00
20260903064050 71 139 5.2 7.0 0.00 0.00 0.00
20260903063247 70 149 3.5 7.0 0.00 0.00 0.00
20260903062845 68 146 5.2 7.8 0.00 0.00 0.00
20260903062437 69 137 4.3 7.8 0.00 0.00 0.00
20260903062035 69 129 2.6 5.2 0.00 0.00 0.00
20260903061633 68 134 3.5 5.2 0.00 0.00 0.00
20260903061232 68 139 4.3 7.0 0.00 0.00 0.00
20260903060830 68 152 4.3 6.1 0.00 0.00 0.00
20260903060429 68 140 2.6 4.3 0.00 0.00 0.00
20260903060028 67 146 3.5 6.1 0.00 0.00 0.00
20260903055625 65 133 2.6 4.3 0.00 0.00 0.00
20260903055224 66 131 2.6 4.3 0.00 0.00 0.00
20260903054823 66 141 3.5 7.0 0.00 0.00 0.00
20260903054702 66 154 3.5 7.0 0.00 0.00 0.00
20260903054415 66 154 3.5 7.0 0.00 0.00 0.00
20260903054012 66 157 3.5 5.2 0.00 0.00 0.00
20260903053611 66 148 4.3 7.0 0.00 0.00 0.00
20260903053210 66 134 3.5 5.2 0.00 0.00 0.00
20260903052808 65 131 2.6 5.2 0.00 0.00 0.00
20260903052406 65 139 0.9 3.5 0.00 0.00 0.00
20260903052004 64 157 2.6 4.3 0.00 0.00 0.00
20260903051602 63 139 1.7 4.3 0.00 0.00 0.00
20260903051201 63 135 2.6 5.2 0.00 0.00 0.00
20260903050758 64 154 2.6 5.2 0.00 0.00 0.00
20260903050350 63 141 2.6 4.3 0.00 0.00 0.00
20260903045949 64 143 2.6 5.2 0.00 0.00 0.00
20260903045548 63 133 2.6 6.1 0.00 0.00 0.00
20260903045147 64 137 2.6 5.2 0.00 0.00 0.00
20260903044744 63 143 3.5 4.3 0.00 0.00 0.00
20260903044343 62 148 2.6 6.1 0.00 0.00 0.00
20260903043941 62 157 3.5 5.2 0.00 0.00 0.00
20260903043540 61 147 2.6 4.3 0.00 0.00 0.00
20260903043137 61 135 1.7 2.6 0.00 0.00 0.00
20260903042736 61 135 1.7 3.5 0.00 0.00 0.00
20260903042328 61 135 1.7 4.3 0.00 0.00 0.00
20260903041926 59 111 0.0 0.9 0.00 0.00 0.00
20260903041524 59 111 0.9 1.7 0.00 0.00 0.00
20260903041123 60 111 1.7 2.6 0.00 0.00 0.00
20260903040721 59 111 0.9 1.7 0.00 0.00 0.00
20260903040320 60 111 0.9 1.7 0.00 0.00 0.00
20260903035917 62 129 1.7 2.6 0.00 0.00 0.00
20260903035516 61 135 0.9 2.6 0.00 0.00 0.00
20260903035115 62 135 2.6 4.3 0.00 0.00 0.00
20260903034713 61 151 3.5 4.3 0.00 0.00 0.00
20260903034305 61 135 1.7 2.6 0.00 0.00 0.00
20260903033902 63 136 2.6 4.3 0.00 0.00 0.00
20260903033501 62 145 3.5 4.3 0.00 0.00 0.00
20260903033100 62 153 2.6 5.2 0.00 0.00 0.00
20260903032658 61 148 1.7 3.5 0.00 0.00 0.00
20260903032256 63 140 2.6 5.2 0.00 0.00 0.00
20260903031854 62 132 1.7 3.5 0.00 0.00 0.00
20260903031453 62 136 3.5 5.2 0.00 0.00 0.00
20260903031052 63 136 3.5 6.1 0.00 0.00 0.00
20260903030649 63 152 4.3 6.1 0.00 0.00 0.00
20260903030241 62 135 1.7 3.5 0.00 0.00 0.00
20260903025839 61 151 1.7 2.6 0.00 0.00 0.00
20260903025438 61 157 2.6 4.3 0.00 0.00 0.00
20260903025036 62 157 1.7 3.5 0.00 0.00 0.00
20260903024635 63 141 2.6 4.3 0.00 0.00 0.00
20260903024234 63 152 2.6 4.3 0.00 0.00 0.00
20260903023832 64 143 3.5 5.2 0.00 0.00 0.00
20260903023431 62 152 3.5 7.8 0.00 0.00 0.00
20260903023029 62 151 2.6 5.2 0.00 0.00 0.00
20260903022627 61 135 1.7 3.5 0.00 0.00 0.00
20260903022219 61 135 1.7 3.5 0.00 0.00 0.00
20260903021817 61 135 0.9 2.6 0.00 0.00 0.00
20260903021415 62 135 0.9 1.7 0.00 0.00 0.00
20260903020612 63 111 1.7 2.6 0.00 0.00 0.00
20260903020211 62 111 2.6 2.6 0.00 0.00 0.00
20260903015808 62 135 1.7 3.5 0.00 0.00 0.00
20260903015407 62 139 2.6 4.3 0.00 0.00 0.00
20260903015006 62 135 1.7 1.7 0.00 0.00 0.00
20260903014604 61 151 1.7 2.6 0.00 0.00 0.00
20260903014155 62 180 0.9 2.6 0.00 0.00 0.00
20260903013753 63 180 1.7 2.6 0.00 0.00 0.00
20260903013352 64 180 2.6 3.5 0.00 0.00 0.00
20260903012951 63 180 1.7 3.5 0.00 0.00 0.00
20260903012549 64 182 2.6 3.5 0.00 0.00 0.00
20260903012147 64 217 1.7 3.5 0.00 0.00 0.00
20260903011745 65 180 3.5 6.1 0.00 0.00 0.00
20260903010943 65 150 1.7 3.5 0.00 0.00 0.00
20260903010540 63 140 1.7 3.5 0.00 0.00 0.00
20260903010132 63 170 1.7 3.5 0.00 0.00 0.00
20260903005730 64 180 1.7 3.5 0.00 0.00 0.00
20260903005329 65 180 0.9 1.7 0.00 0.00 0.00
20260903004927 64 157 0.9 1.7 0.00 0.00 0.00
20260903004525 63 157 0.9 3.5 0.00 0.00 0.00
20260903004124 65 158 2.6 3.5 0.00 0.00 0.00
20260903003723 66 209 1.7 2.6 0.00 0.00 0.00
20260903003320 64 225 0.9 2.6 0.00 0.00 0.00
20260903002919 65 248 0.9 2.6 0.00 0.00 0.00
20260903002518 63 262 2.6 3.5 0.00 0.00 0.00
20260903002110 63 288 0.9 2.6 0.00 0.00 0.00
20260903001708 60 292 0.9 1.7 0.00 0.00 0.00
20260903001305 60 292 0.9 1.7 0.00 0.00 0.00
20260903000904 61 288 2.6 4.3 0.00 0.00 0.00
20260903000502 61 180 0.9 2.6 0.00 0.00 0.00
20260902235658 62 180 0.9 1.7 0.00 0.00 0.00
20260902235257 62 180 0.9 3.5 0.00 0.00 0.00
20260902234856 64 157 1.7 3.5 0.00 0.00 0.00
20260902234454 65 157 2.6 4.3 0.00 0.00 0.00
20260902234045 65 152 2.6 5.2 0.00 0.00 0.00
20260902233643 65 138 2.6 3.5 0.00 0.00 0.00
20260902233242 65 146 2.6 4.3 0.00 0.00 0.00
20260902232841 65 153 3.5 6.1 0.00 0.00 0.00
20260902232438 66 150 4.3 7.0 0.00 0.00 0.00
20260902232038 65 148 3.5 7.0 0.00 0.00 0.00
20260902231635 65 133 3.5 6.1 0.00 0.00 0.00
20260902231234 65 150 4.3 7.0 0.00 0.00 0.00
20260902230833 65 148 3.5 5.2 0.00 0.00 0.00
20260902230022 65 151 3.5 6.1 0.00 0.00 0.00
20260902225620 64 157 2.6 3.5 0.00 0.00 0.00
20260902225219 64 157 2.6 3.5 0.00 0.00 0.00
20260902224816 64 154 3.5 4.3 0.00 0.00 0.00
20260902224415 65 157 2.6 4.3 0.00 0.00 0.00
20260902224013 65 148 2.6 3.5 0.00 0.00 0.00
20260902223612 65 152 3.5 6.1 0.00 0.00 0.00
20260902223209 66 152 4.3 7.0 0.00 0.00 0.00
20260902222809 64 147 3.5 5.2 0.00 0.00 0.00
20260902222406 64 142 3.5 5.2 0.00 0.00 0.00
20260902221958 65 154 2.6 4.3 0.00 0.00 0.00
20260902221555 65 143 4.3 6.1 0.00 0.00 0.00
20260902221154 66 148 4.3 8.7 0.00 0.00 0.00
20260902220753 64 154 3.5 5.2 0.00 0.00 0.00
20260902220352 62 157 1.7 3.5 0.00 0.00 0.00
20260902215951 64 157 2.6 4.3 0.00 0.00 0.00
20260902215548 64 141 2.6 4.3 0.00 0.00 0.00
20260902215147 65 137 3.5 4.3 0.00 0.00 0.00
20260902214746 66 151 3.5 6.1 0.00 0.00 0.00
20260902214344 66 152 4.3 7.0 0.00 0.00 0.00
20260902213935 66 156 3.5 5.2 0.00 0.00 0.00
20260902213533 66 163 5.2 7.0 0.00 0.00 0.00
20260902213132 65 157 2.6 3.5 0.00 0.00 0.00
20260902212731 66 166 2.6 4.3 0.00 0.00 0.00
20260902212328 66 178 2.6 4.3 0.00 0.00 0.00
20260902211927 65 180 2.6 5.2 0.00 0.00 0.00
20260902211525 66 157 2.6 4.3 0.00 0.00 0.00
20260902211124 66 157 3.5 6.1 0.00 0.00 0.00
20260902210722 66 157 2.6 3.5 0.00 0.00 0.00
20260902210320 66 157 2.6 3.5 0.00 0.00 0.00
20260902205912 66 157 2.6 3.5 0.00 0.00 0.00
20260902205510 66 157 1.7 4.3 0.00 0.00 0.00
20260902205109 67 157 3.5 6.1 0.00 0.00 0.00
20260902204707 66 156 2.6 5.2 0.00 0.00 0.00
20260902204305 66 135 0.9 1.7 0.00 0.00 0.00
20260902203904 66 135 1.7 3.5 0.00 0.00 0.00
20260902203503 66 146 1.7 3.5 0.00 0.00 0.00
20260902203101 67 140 1.7 3.5 0.00 0.00 0.00
20260902202700 67 150 1.7 3.5 0.00 0.00 0.00
20260902202258 66 157 1.7 3.5 0.00 0.00 0.00
20260902201850 66 157 0.9 2.6 0.00 0.00 0.00
20260902201046 67 135 1.7 4.3 0.00 0.00 0.00
20260902200243 67 135 1.7 3.5 0.00 0.00 0.00
20260902195841 68 157 3.5 5.2 0.00 0.00 0.00
20260902195439 68 144 4.3 7.0 0.00 0.00 0.00
20260902195038 68 136 1.7 4.3 0.00 0.00 0.00
20260902194637 67 129 1.7 1.7 0.00 0.00 0.00
20260902194235 67 69 1.7 1.7 0.00 0.00 0.00
20260902193826 67 21 1.7 2.6 0.00 0.00 0.00
20260902193424 67 21 0.9 1.7 0.00 0.00 0.00
20260902193023 67 21 0.0 1.7 0.00 0.00 0.00
20260902192622 67 21 0.0 0.0 0.00 0.00 0.00
20260902192219 67 21 0.0 0.0 0.00 0.00 0.00
20260902191818 68 21 0.0 0.0 0.00 0.00 0.00
20260902191417 67 21 0.0 0.0 0.00 0.00 0.00
20260902191016 68 21 0.0 1.7 0.00 0.00 0.00
20260902190613 68 21 0.9 1.7 0.00 0.00 0.00
20260902190212 68 21 0.0 1.7 0.00 0.00 0.00
20260902185804 68 21 0.9 0.9 0.00 0.00 0.00
20260902185402 68 21 0.9 1.7 0.00 0.00 0.00
20260902185000 67 21 0.0 1.7 0.00 0.00 0.00
20260902184559 69 21 1.7 2.6 0.00 0.00 0.00
20260902184157 69 21 0.0 1.7 0.00 0.00 0.00
20260902183756 69 21 0.0 0.9 0.00 0.00 0.00
20260902183354 69 21 0.0 0.0 0.00 0.00 0.00
20260902182952 69 21 0.9 1.7 0.00 0.00 0.00
20260902182551 69 0 0.9 1.7 0.00 0.00 0.00
20260902182149 69 0 0.0 0.9 0.00 0.00 0.00
20260902181741 69 345 0.9 0.9 0.00 0.00 0.00
20260902181338 70 338 0.0 0.0 0.00 0.00 0.00
20260902180937 71 338 0.0 0.9 0.00 0.00 0.00
20260902180536 70 338 0.9 1.7 0.00 0.00 0.00
20260902180134 70 338 0.9 1.7 0.00 0.00 0.00
20260902175732 70 21 0.9 1.7 0.00 0.00 0.00
20260902175330 71 21 0.0 1.7 0.00 0.00 0.00
20260902174929 71 21 0.0 1.7 0.00 0.00 0.00
20260902174528 71 21 0.9 1.7 0.00 0.00 0.00
20260902174125 71 20 2.6 3.5 0.00 0.00 0.00
20260902173717 71 21 1.7 2.6 0.00 0.00 0.00
20260902173316 72 21 1.7 3.5 0.00 0.00 0.00
20260902172915 72 21 1.7 3.5 0.00 0.00 0.00
20260902172514 72 21 2.6 3.5 0.00 0.00 0.00
20260902172111 72 21 3.5 4.3 0.00 0.00 0.00
20260902171710 72 21 2.6 4.3 0.00 0.00 0.00
20260902171308 73 21 2.6 4.3 0.00 0.00 0.00
20260902170907 73 346 2.6 4.3 0.00 0.00 0.00
20260902170505 73 338 1.7 3.5 0.00 0.00 0.00
20260902170103 74 338 0.9 1.7 0.00 0.00 0.00
20260902165655 74 338 0.9 1.7 0.00 0.00 0.00
20260902165253 74 338 0.9 2.6 0.00 0.00 0.00
20260902164851 75 338 0.9 1.7 0.00 0.00 0.00
20260902164450 75 338 1.7 3.5 0.00 0.00 0.00
20260902164048 75 338 0.9 2.6 0.00 0.00 0.00
20260902163647 75 338 0.9 1.7 0.00 0.00 0.00
20260902163244 76 338 1.7 2.6 0.00 0.00 0.00
20260902162843 76 338 0.9 2.6 0.00 0.00 0.00
20260902162442 76 338 0.0 0.9 0.00 0.00 0.00
20260902162040 77 338 0.0 0.9 0.00 0.00 0.00
20260902161632 76 315 0.0 0.0 0.00 0.00 0.00
20260902161229 76 315 0.0 0.0 0.00 0.00 0.00
20260902160828 77 315 0.0 2.6 0.00 0.00 0.00
20260902160427 77 315 0.0 0.9 0.00 0.00 0.00
20260902160025 77 314 0.9 2.6 0.00 0.00 0.00
20260902155623 77 292 1.7 3.5 0.00 0.00 0.00
20260902155221 77 302 1.7 3.5 0.00 0.00 0.00
20260902154820 78 315 1.7 3.5 0.00 0.00 0.00
20260902154419 77 315 0.9 2.6 0.00 0.00 0.00
20260902154016 77 311 1.7 3.5 0.00 0.00 0.00
20260902153608 77 292 0.9 1.7 0.00 0.00 0.00
20260902153206 77 292 1.7 3.5 0.00 0.00 0.00
20260902152804 78 292 1.7 3.5 0.00 0.00 0.00
20260902152402 78 305 0.9 4.3 0.00 0.00 0.00
20260902152000 78 292 1.7 3.5 0.00 0.00 0.00
20260902151559 78 296 1.7 5.2 0.00 0.00 0.00
20260902151157 78 282 1.7 2.6 0.00 0.00 0.00
20260902150756 79 313 2.6 5.2 0.00 0.00 0.00
20260902150354 79 309 0.9 3.5 0.00 0.00 0.00
20260902145952 78 341 2.6 7.0 0.00 0.00 0.00
20260902145544 79 300 5.2 10.4 0.00 0.00 0.00
20260902145142 79 241 4.3 8.7 0.00 0.00 0.00
20260902144740 79 240 5.2 7.8 0.00 0.00 0.00
20260902143937 79 249 3.5 7.0 0.00 0.00 0.00
20260902143536 79 220 3.5 7.0 0.00 0.00 0.00
20260902143133 80 210 5.2 7.8 0.00 0.00 0.00
20260902142732 79 250 4.3 7.0 0.00 0.00 0.00
20260902142331 79 257 4.3 7.0 0.00 0.00 0.00
20260902141929 79 253 7.0 8.7 0.00 0.00 0.00
20260902141520 79 222 6.1 9.6 0.00 0.00 0.00
20260902141118 79 254 4.3 6.1 0.00 0.00 0.00
20260902140717 79 249 3.5 4.3 0.00 0.00 0.00
20260902140316 79 275 5.2 8.7 0.00 0.00 0.00
20260902135915 79 281 6.1 9.6 0.00 0.00 0.00
20260902135513 79 277 4.3 6.1 0.00 0.00 0.00
20260902134710 79 231 5.2 7.8 0.00 0.00 0.00
20260902134309 78 248 7.8 11.3 0.00 0.00 0.00
20260902133906 79 274 5.2 9.6 0.00 0.00 0.00
20260902133458 79 264 6.1 8.7 0.00 0.00 0.00
20260902133056 79 256 3.5 7.0 0.00 0.00 0.00
20260902132655 78 259 6.1 8.7 0.00 0.00 0.00
20260902131851 78 262 2.6 4.3 0.00 0.00 0.00
20260902131450 77 307 4.3 7.0 0.00 0.00 0.00
20260902131048 79 284 4.3 8.7 0.00 0.00 0.00
20260902130646 79 354 3.5 7.0 0.00 0.00 0.00
20260902130245 79 269 4.3 7.0 0.00 0.00 0.00
20260902125843 78 316 4.3 7.0 0.00 0.00 0.00
20260902125435 78 342 5.2 8.7 0.00 0.00 0.00
20260902125033 78 299 4.3 7.8 0.00 0.00 0.00
20260902124631 79 296 4.3 7.8 0.00 0.00 0.00
20260902124230 79 278 2.6 4.3 0.00 0.00 0.00
20260902123828 78 317 2.6 4.3 0.00 0.00 0.00
20260902123427 79 275 2.6 5.2 0.00 0.00 0.00
20260902123025 78 300 2.6 4.3 0.00 0.00 0.00
20260902122624 78 315 1.7 6.1 0.00 0.00 0.00
20260902122223 76 313 3.5 6.1 0.00 0.00 0.00
20260902121821 77 260 3.5 5.2 0.00 0.00 0.00
20260902121412 76 272 6.1 8.7 0.00 0.00 0.00
20260902121010 76 270 5.2 8.7 0.00 0.00 0.00
20260902120609 76 270 4.3 8.7 0.00 0.00 0.00